When you browse on this site, cookies collect data to enhance your experience and personalize the content and advertising you see.
Visit our Privacy Policy to learn more. By continuing to use the site, you agree to this use of cookies and data.
  • In Spain
  • List of Countries
  • For 7 days
  • Water Temperature
  • Satellite Maps
  • Weather Map
  • Weather Widgets
  • user-avatar
    Login

    Hourly Weather Córdoba

    Today, 12 December, Wednesday

    Time Temperature Precipitation Wind Pressure Humidity
    00:00 +26°C° 1.5 mm 4 mps 721 mmHg 86%
    01:00 +25°C° 1.5 mm 4 mps 721 mmHg 87%
    02:00 +23°C° 0 mm 5 mps 721 mmHg 90%
    03:00 +23°C° 0.7 mm 5 mps 722 mmHg 90%
    04:00 +23°C° 0.7 mm 5 mps 722 mmHg 90%
    05:00 +22°C° 0.7 mm 5 mps 722 mmHg 90%
    06:00 +23°C° 0.2 mm 5 mps 723 mmHg 87%
    07:00 +23°C° 0.2 mm 5 mps 723 mmHg 83%
    08:00 +25°C° 0 mm 4 mps 724 mmHg 79%
    09:00 +26°C° 0.3 mm 4 mps 723 mmHg 74%
    10:00 +27°C° 0.3 mm 4 mps 723 mmHg 69%
    11:00 +28°C° 0.3 mm 4 mps 723 mmHg 63%
    12:00 +29°C° 0.3 mm 4 mps 723 mmHg 61%
    13:00 +30°C° 0.3 mm 4 mps 722 mmHg 59%
    14:00 +30°C° 0.3 mm 4 mps 722 mmHg 57%
    15:00 +30°C° 0.2 mm 4 mps 722 mmHg 59%
    16:00 +30°C° 0.2 mm 4 mps 721 mmHg 60%
    17:00 +30°C° 0.2 mm 4 mps 721 mmHg 62%
    18:00 +28°C° 0 mm 3 mps 721 mmHg 68%
    19:00 +27°C° 0 mm 2 mps 721 mmHg 75%
    20:00 +26°C° 0 mm 1 mps 721 mmHg 81%
    21:00 +25°C° 0 mm 1 mps 721 mmHg 83%
    22:00 +25°C° 0 mm 1 mps 721 mmHg 85%
    23:00 +24°C° 0 mm 1 mps 721 mmHg 86%

    Tomorrow, 13 December, Thursday

    Time Temperature Precipitation Wind Pressure Humidity
    00:00 +24°C° 0.1 mm 1 mps 720 mmHg 87%
    01:00 +24°C° 0.1 mm 1 mps 720 mmHg 88%
    02:00 +24°C° 0.1 mm 1 mps 719 mmHg 88%
    03:00 +24°C° 0.3 mm 1 mps 719 mmHg 88%
    04:00 +24°C° 0.3 mm 1 mps 719 mmHg 89%
    05:00 +24°C° 0.3 mm 1 mps 719 mmHg 89%
    06:00 +25°C° 0.8 mm 2 mps 719 mmHg 86%
    07:00 +27°C° 0.8 mm 2 mps 718 mmHg 83%
    08:00 +28°C° 0.8 mm 3 mps 718 mmHg 80%
    09:00 +28°C° 0.4 mm 3 mps 718 mmHg 81%
    10:00 +28°C° 0.4 mm 4 mps 718 mmHg 83%
    11:00 +28°C° 0.4 mm 4 mps 717 mmHg 85%
    12:00 +30°C° 0 mm 4 mps 717 mmHg 75%
    13:00 +33°C° 0 mm 5 mps 716 mmHg 65%
    14:00 +36°C° 0 mm 5 mps 715 mmHg 55%
    15:00 +36°C° 0 mm 5 mps 715 mmHg 52%
    16:00 +37°C° 0 mm 5 mps 714 mmHg 49%
    17:00 +39°C° 0 mm 5 mps 713 mmHg 46%
    18:00 +36°C° 0.4 mm 5 mps 713 mmHg 53%
    19:00 +34°C° 0.4 mm 4 mps 714 mmHg 61%
    20:00 +30°C° 0.4 mm 3 mps 714 mmHg 69%
    21:00 +29°C° 4 mm 4 mps 714 mmHg 76%
    22:00 +28°C° 4 mm 4 mps 715 mmHg 82%
    23:00 +26°C° 4 mm 4 mps 715 mmHg 89%

    Day after tomorrow, 14 December, Friday

    Time Temperature Precipitation Wind Pressure Humidity
    00:00 +26°C° 1.5 mm 3 mps 715 mmHg 90%
    01:00 +26°C° 1.5 mm 3 mps 715 mmHg 91%
    02:00 +25°C° 1.5 mm 2 mps 714 mmHg 92%
    03:00 +25°C° 1.4 mm 3 mps 715 mmHg 91%
    04:00 +25°C° 1.4 mm 4 mps 715 mmHg 91%
    05:00 +23°C° 1.4 mm 5 mps 716 mmHg 91%
    06:00 +24°C° 0.4 mm 6 mps 717 mmHg 86%
    07:00 +24°C° 0.4 mm 6 mps 718 mmHg 80%
    08:00 +26°C° 0.4 mm 7 mps 719 mmHg 75%
    09:00 +26°C° 0 mm 7 mps 719 mmHg 69%
    10:00 +27°C° 0 mm 8 mps 720 mmHg 62%
    11:00 +28°C° 0 mm 8 mps 720 mmHg 56%
    12:00 +28°C° 0 mm 8 mps 721 mmHg 51%
    13:00 +29°C° 0 mm 7 mps 721 mmHg 46%
    14:00 +30°C° 0 mm 7 mps 721 mmHg 41%
    15:00 +29°C° 0 mm 6 mps 721 mmHg 41%
    16:00 +29°C° 0 mm 6 mps 721 mmHg 42%
    17:00 +28°C° 0 mm 6 mps 721 mmHg 43%
    18:00 +26°C° 0 mm 5 mps 721 mmHg 44%
    19:00 +25°C° 0 mm 5 mps 722 mmHg 46%
    20:00 +22°C° 0 mm 4 mps 723 mmHg 48%
    21:00 +21°C° 0 mm 4 mps 723 mmHg 48%
    22:00 +20°C° 0 mm 4 mps 724 mmHg 48%
    23:00 +20°C° 0 mm 3 mps 724 mmHg 48%

    15 December, Saturday

    Time Temperature Precipitation Wind Pressure Humidity
    00:00 +19°C° 0 mm 3 mps 724 mmHg 47%
    01:00 +19°C° 0 mm 3 mps 724 mmHg 47%
    02:00 +18°C° 0 mm 3 mps 724 mmHg 47%
    03:00 +18°C° 0 mm 2 mps 724 mmHg 47%
    04:00 +17°C° 0 mm 2 mps 725 mmHg 46%
    05:00 +18°C° 0 mm 1 mps 725 mmHg 46%
    06:00 +20°C° 0 mm 1 mps 726 mmHg 43%
    07:00 +21°C° 0 mm 2 mps 726 mmHg 40%
    08:00 +23°C° 0 mm 2 mps 726 mmHg 36%
    09:00 +25°C° 0 mm 2 mps 726 mmHg 33%
    10:00 +27°C° 0 mm 2 mps 726 mmHg 29%
    11:00 +29°C° 0 mm 2 mps 726 mmHg 25%
    12:00 +29°C° 0 mm 3 mps 725 mmHg 25%
    13:00 +30°C° 0 mm 4 mps 725 mmHg 25%
    14:00 +32°C° 0 mm 4 mps 724 mmHg 25%
    15:00 +30°C° 0 mm 4 mps 724 mmHg 28%
    16:00 +30°C° 0 mm 4 mps 723 mmHg 32%
    17:00 +29°C° 0 mm 5 mps 723 mmHg 35%
    18:00 +27°C° 0 mm 4 mps 723 mmHg 42%
    19:00 +25°C° 0 mm 3 mps 723 mmHg 49%
    20:00 +23°C° 0 mm 2 mps 723 mmHg 56%
    21:00 +23°C° 0 mm 2 mps 723 mmHg 59%
    22:00 +21°C° 0 mm 2 mps 723 mmHg 61%
    23:00 +21°C° 0 mm 2 mps 724 mmHg 63%

    16 December, Sunday

    Time Temperature Precipitation Wind Pressure Humidity
    00:00 +21°C° 0 mm 2 mps 723 mmHg 66%
    01:00 +20°C° 0 mm 2 mps 723 mmHg 68%
    02:00 +20°C° 0 mm 2 mps 723 mmHg 71%
    03:00 +20°C° 0 mm 2 mps 722 mmHg 73%
    04:00 +20°C° 0 mm 2 mps 722 mmHg 76%
    05:00 +20°C° 0 mm 2 mps 722 mmHg 79%
    06:00 +21°C° 0 mm 2 mps 723 mmHg 75%
    07:00 +24°C° 0 mm 3 mps 723 mmHg 71%
    08:00 +26°C° 0 mm 3 mps 723 mmHg 68%
    09:00 +27°C° 0 mm 4 mps 723 mmHg 64%
    10:00 +29°C° 0 mm 4 mps 723 mmHg 60%
    11:00 +32°C° 0 mm 4 mps 723 mmHg 56%
    12:00 +32°C° 0.4 mm 4 mps 722 mmHg 56%
    13:00 +33°C° 0.4 mm 4 mps 722 mmHg 56%
    14:00 +33°C° 0.4 mm 5 mps 721 mmHg 55%
    15:00 +33°C° 0 mm 4 mps 721 mmHg 55%
    16:00 +34°C° 0 mm 4 mps 720 mmHg 54%
    17:00 +34°C° 0 mm 4 mps 719 mmHg 53%
    18:00 +31°C° 0 mm 3 mps 720 mmHg 60%
    19:00 +29°C° 0 mm 3 mps 720 mmHg 68%
    20:00 +28°C° 0 mm 3 mps 720 mmHg 75%
    21:00 +27°C° 0 mm 2 mps 720 mmHg 76%
    22:00 +27°C° 0 mm 2 mps 720 mmHg 78%
    23:00 +26°C° 0 mm 2 mps 721 mmHg 80%

    17 December, Monday

    Time Temperature Precipitation Wind Pressure Humidity
    00:00 +26°C° 0 mm 2 mps 720 mmHg 80%
    01:00 +26°C° 0 mm 2 mps 720 mmHg 80%
    02:00 +25°C° 0 mm 1 mps 719 mmHg 80%
    03:00 +25°C° 0 mm 1 mps 719 mmHg 79%
    04:00 +25°C° 0 mm 1 mps 719 mmHg 79%
    05:00 +25°C° 0 mm 1 mps 719 mmHg 78%
    06:00 +26°C° 0.1 mm 2 mps 720 mmHg 72%
    07:00 +28°C° 0.1 mm 3 mps 721 mmHg 66%
    08:00 +30°C° 0.1 mm 3 mps 722 mmHg 60%
    09:00 +32°C° 0.2 mm 4 mps 722 mmHg 55%
    10:00 +34°C° 0.2 mm 4 mps 722 mmHg 51%
    11:00 +35°C° 0.2 mm 4 mps 722 mmHg 46%
    12:00 +35°C° 0.2 mm 5 mps 722 mmHg 46%
    13:00 +35°C° 0.2 mm 5 mps 722 mmHg 45%
    14:00 +36°C° 0.2 mm 5 mps 722 mmHg 45%
    15:00 +34°C° 2 mm 5 mps 722 mmHg 52%
    16:00 +32°C° 2 mm 6 mps 722 mmHg 60%
    17:00 +29°C° 2 mm 6 mps 721 mmHg 67%
    18:00 +28°C° 1.4 mm 5 mps 722 mmHg 72%
    19:00 +27°C° 1.4 mm 5 mps 723 mmHg 78%
    20:00 +25°C° 1.4 mm 4 mps 723 mmHg 83%
    21:00 +25°C° 0.2 mm 4 mps 724 mmHg 84%
    22:00 +23°C° 0.2 mm 4 mps 724 mmHg 84%
    23:00 +23°C° 0.2 mm 4 mps 725 mmHg 85%
    Show more